+ View the NASA Portal
+ Center for Near-Earth Object Studies
IMPORTANT:
The SSD Announcement email list is now available. Major changes are coming in the near future, including possible hostname and/or URL changes. To be notified of such changes, subscribe to this email list.
Please visit
this page
for more details.
Don't show this message again
JPL Small-Body Database Browser
Search:
[
help
]
214035 (2004 EW14)
Classification:
Outer Main-belt Asteroid
SPK-ID:
2214035
[
Ephemeris
|
Orbit Diagram
|
Orbital Elements
|
Mission Design
|
Physical Parameters
|
Discovery Circumstances
|
Close-Approach Data
]
[ show orbit diagram ]
Orbital Elements at Epoch 2458600.5 (2019-Apr-27.0) TDB
Reference:
JPL 17
(heliocentric ecliptic J2000)
Element
Value
Uncertainty (1-sigma)
Units
e
.1266760070575339
5.313e-08
a
3.207978479412769
4.2707e-08
au
q
2.80160457491426
1.8107e-07
au
i
9.455232365278569
7.43e-06
deg
node
64.66240309487674
3.5595e-05
deg
peri
97.0683839716709
4.9325e-05
deg
M
240.9226911882768
3.5e-05
deg
t
p
2459294.680014668532
(2021-Mar-21.18001467)
0.00021216
TDB
period
2098.676966875391
5.75
4.1908e-05
1.147e-07
d
yr
n
.1715366422189237
3.4254e-09
deg/d
Q
3.614352383911278
4.8116e-08
au
Orbit Determination Parameters
# obs. used (total)
268
data-arc span
6195 days (16.96 yr)
first obs. used
2002-12-11
last obs. used
2019-11-27
planetary ephem.
DE431
SB-pert. ephem.
SB431-N16
condition code
0
norm. resid. RMS
.59488
source
ORB
producer
Otto Matic
solution date
2019-Dec-04 16:56:52
Additional Information
Earth MOID
= 1.8304 au
Jupiter MOID
= 1.47327 au
T_jup
= 3.159
[ show covariance matrix ]
[
Ephemeris
|
Orbit Diagram
|
Orbital Elements
|
Mission Design
|
Physical Parameters
|
Discovery Circumstances
|
Close-Approach Data
]
Physical Parameter Table
Parameter
Symbol
Value
Units
Sigma
Reference
Notes
absolute magnitude
H
15.1
n/a
MPO418147
214035 (2004 EW14)
Discovered 2004-Mar-11 by NEAT at Palomar
Reference:
20090509/Numbers.arc
Last Updated:
2009-05-11
[ show close-approach data ]
[
Ephemeris
|
Orbit Diagram
|
Orbital Elements
|
Mission Design
|
Physical Parameters
|
Discovery Circumstances
|
Close-Approach Data
]
2019-Dec-16 11:18 UT
(server date/time)
Site Manager:
Ryan S. Park
Webmaster
:
Alan B. Chamberlin